CW2220 Weather Reports


Display with metric or nautical units.
time (UTC)temp
F
wind
direction
speed
MPH
gust
MPH
rain 1hr
in
rain 24hr
in
rain mn
in
humidity
%
barometer
mb
20260503071546 56 0 0.0 0.0 0.00 0.01 0.00 78 1020.1
20260503054542 60 13 1.0 4.0 0.00 0.17 0.00 69 1019.6
20260503053035 60 15 2.0 4.0 0.00 0.17 0.00 71 1019.5
20260503051535 60 5 1.0 4.0 0.00 0.17 0.00 72 1019.4
20260503050035 60 26 1.0 4.0 0.00 0.17 0.00 73 1019.5
20260503044541 59 355 1.0 3.0 0.00 0.26 0.17 73 1019.4
20260503043038 60 0 0.0 1.0 0.00 0.26 0.17 73 1019.4
20260503041536 60 5 1.0 2.0 0.00 0.26 0.17 71 1019.4
20260503040036 61 0 0.0 3.0 0.00 0.26 0.17 70 1019.4
20260503034534 62 0 1.0 5.0 0.00 0.28 0.17 69 1019.5
20260503033046 63 355 2.0 7.0 0.00 0.28 0.17 68 1019.2
20260503031538 63 39 3.0 8.0 0.00 0.28 0.17 68 1019.1
20260503030035 63 40 3.0 7.0 0.00 0.28 0.17 68 1018.8
20260503024539 63 31 3.0 8.0 0.00 0.28 0.17 68 1018.8
20260503023034 63 355 2.0 7.0 0.00 0.28 0.17 68 1018.6
20260503021543 64 12 2.0 7.0 0.00 0.28 0.17 67 1018.6
20260503020042 64 45 3.0 5.0 0.00 0.28 0.17 66 1018.6
20260503014605 64 5 2.0 5.0 0.00 0.28 0.17 65 1018.5
20260503013039 65 360 1.0 4.0 0.00 0.28 0.17 64 1018.3
20260503011540 66 11 3.0 7.0 0.00 0.28 0.17 61 1018.1
20260503010050 67 344 4.0 9.0 0.00 0.28 0.17 57 1017.9
20260503004550 67 355 4.0 9.0 0.00 0.28 0.17 55 1017.9
20260503003036 68 333 4.0 10.0 0.00 0.28 0.17 54 1017.8
20260503001539 69 12 6.0 12.0 0.00 0.28 0.17 52 1017.7
20260503000037 70 17 7.0 15.0 0.00 0.28 0.17 50 1017.5
20260502234536 70 355 7.0 15.0 0.00 0.49 0.17 49 1017.4
20260502233039 71 336 5.0 18.0 0.00 0.49 0.17 51 1017.2
20260502231538 71 327 5.0 17.0 0.00 0.49 0.17 52 1016.9
20260502230036 71 337 7.0 16.0 0.00 0.49 0.17 51 1016.7
20260502224534 72 24 7.0 17.0 0.00 0.52 0.17 51 1016.5
20260502223037 72 342 6.0 16.0 0.00 0.52 0.17 50 1016.4
20260502221539 72 17 8.0 15.0 0.00 0.52 0.17 52 1016.4
20260502220032 72 9 9.0 17.0 0.00 0.52 0.17 50 1016.5
20260502214534 72 351 7.0 18.0 0.00 0.65 0.17 51 1016.3
20260502213034 72 61 8.0 15.0 0.00 0.65 0.17 50 1016.3
20260502211541 72 299 10.0 18.0 0.00 0.65 0.17 47 1016.4
20260502210037 71 351 9.0 18.0 0.00 0.65 0.17 52 1016.4
20260502204541 72 302 6.0 15.0 0.00 0.90 0.17 53 1016.6
20260502203039 72 340 6.0 18.0 0.00 0.90 0.17 55 1016.9
20260502201535 71 350 8.0 19.0 0.00 0.90 0.17 55 1017.0
20260502200034 71 333 7.0 19.0 0.00 0.90 0.17 54 1017.0
20260502194541 72 338 7.0 20.0 0.00 1.97 0.17 55 1017.2
20260502193033 71 314 8.0 20.0 0.00 1.97 0.17 56 1017.2
20260502191535 70 340 11.0 20.0 0.00 1.97 0.17 55 1017.2
20260502190040 71 360 9.0 18.0 0.00 1.97 0.17 61 1017.4
20260502184548 70 9 11.0 23.0 0.00 2.52 0.17 61 1017.3
20260502183047 70 66 7.0 21.0 0.00 2.52 0.17 66 1017.4
20260502181538 70 24 7.0 16.0 0.00 2.52 0.17 68 1017.7
20260502163042 67 11 7.0 18.0 0.00 3.39 0.17 76 1018.4
20260502161534 66 350 9.0 15.0 0.00 3.39 0.17 77 1018.2
20260502151540 63 62 6.0 15.0 0.00 3.39 0.17 83 1018.0
20260502123030 55 34 6.0 15.0 0.00 3.39 0.17 92 1015.8
20260502121536 54 13 5.0 12.0 0.00 3.39 0.17 92 1015.7
20260502114547 54 32 4.0 9.0 0.00 3.39 0.17 91 1015.2
20260502113040 54 5 5.0 10.0 0.00 3.39 0.17 90 1015.0
20260502111536 54 325 6.0 13.0 0.00 3.39 0.17 90 1015.1
20260502110038 54 38 5.0 11.0 0.00 3.39 0.17 90 1015.0
20260502104541 54 5 5.0 15.0 0.00 3.39 0.17 91 1014.8
20260502103037 54 328 7.0 15.0 0.00 3.39 0.17 91 1014.8
20260502101558 54 318 5.0 15.0 0.00 3.39 0.17 92 1014.6